ON7EQ-13 Weather Reports


Display with metric or nautical units.
time (UTC)temp
F
wind
direction
speed
MPH
gust
MPH
rain 1hr
in
rain 24hr
in
rain mn
in
humidity
%
barometer
mb
20260510101410 70 70 2.0 14.0 0.00 0.00 0.00 52 1012.9
20260510100410 71 65 8.0 11.0 0.00 0.00 0.00 54 1012.9
20260510095410 71 70 4.0 8.0 0.00 0.00 0.00 51 1013.0
20260510094410 69 20 0.0 9.0 0.00 0.00 0.00 56 1013.1
20260510093410 69 45 5.0 8.0 0.00 0.00 0.00 56 1013.3
20260510092411 69 65 3.0 10.0 0.00 0.00 0.00 56 1013.3
20260510091410 69 40 1.0 8.0 0.00 0.00 0.00 58 1013.3
20260510090410 68 85 3.0 3.0 0.00 0.00 0.00 60 1013.4
20260510085410 67 90 0.0 6.0 0.00 0.00 0.00 60 1013.3
20260510084410 66 80 1.0 15.0 0.00 0.00 0.00 62 1013.4
20260510083410 65 80 1.0 6.0 0.00 0.00 0.00 64 1013.5
20260510082410 65 35 0.0 6.0 0.00 0.00 0.00 65 1013.6
20260510081410 64 55 1.0 8.0 0.00 0.00 0.00 66 1013.6
20260510080410 63 55 1.0 9.0 0.00 0.00 0.00 67 1013.6
20260510075410 62 75 0.0 3.0 0.00 0.00 0.00 70 1013.7
20260510074410 61 90 0.0 10.0 0.00 0.00 0.00 71 1013.8
20260510072411 59 65 2.0 14.0 0.00 0.00 0.00 74 1013.9
20260510071410 59 75 8.0 19.0 0.00 0.00 0.00 78 1014.0
20260510070410 58 110 1.0 10.0 0.00 0.00 0.00 81 1014.1
20260510065410 57 0 0.0 10.0 0.00 0.00 0.00 84 1014.0
20260510064410 56 80 0.0 8.0 0.00 0.00 0.00 87 1014.1
20260510063410 55 215 0.0 1.0 0.00 0.00 0.00 90 1013.9
20260510062410 55 95 0.0 3.0 0.00 0.00 0.00 93 1014.0
20260510061410 54 135 0.0 2.0 0.00 0.00 0.00 95 1014.1
20260510060410 53 135 0.0 0.0 0.00 0.00 0.00 97 1014.1
20260510055410 52 135 0.0 2.0 0.00 0.00 0.00 99 1014.1
20260510054411 51 150 0.0 0.0 0.00 0.00 0.00 99 1014.1
20260510053410 51 145 0.0 0.0 0.00 0.00 0.00 99 1014.1
20260510052410 50 150 0.0 0.0 0.00 0.00 0.00 99 1014.1
20260510051410 49 150 0.0 0.0 0.00 0.00 0.00 99 1014.1
20260510050410 49 150 0.0 0.0 0.00 0.00 0.00 99 1014.1
20260510045410 49 145 0.0 0.0 0.00 0.00 0.00 99 1014.1
20260510044410 48 150 0.0 0.0 0.00 0.00 0.00 99 1014.1
20260510043410 48 150 0.0 0.0 0.00 0.00 0.00 99 1014.0
20260510042410 48 150 0.0 0.0 0.00 0.00 0.00 99 1013.9
20260510041410 48 150 0.0 0.0 0.00 0.00 0.00 99 1013.9
20260510040410 48 150 0.0 0.0 0.00 0.00 0.00 99 1013.9
20260510035410 48 150 0.0 0.0 0.00 0.00 0.00 99 1013.9
20260510034410 48 150 0.0 0.0 0.00 0.00 0.00 99 1014.0
20260510033410 48 150 0.0 0.0 0.00 0.00 0.00 98 1014.1
20260510032410 48 145 0.0 0.0 0.00 0.00 0.00 98 1014.0
20260510031410 48 145 0.0 0.0 0.00 0.00 0.00 97 1014.1
20260510030410 48 150 0.0 0.0 0.00 0.00 0.00 97 1014.2
20260510025410 48 150 0.0 0.0 0.00 0.00 0.00 96 1014.1
20260510024410 48 150 0.0 0.0 0.00 0.00 0.00 96 1014.1
20260510023410 48 150 0.0 0.0 0.00 0.00 0.00 95 1014.1
20260510022410 48 150 0.0 0.0 0.00 0.00 0.00 95 1014.2
20260510021410 48 145 0.0 0.0 0.00 0.00 0.00 94 1014.3
20260510020410 48 145 0.0 0.0 0.00 0.00 0.00 92 1014.2
20260510015410 48 145 0.0 0.0 0.00 0.00 0.00 92 1014.3
20260510014410 49 150 0.0 0.0 0.00 0.00 0.00 91 1014.3
20260510013410 49 150 0.0 0.0 0.00 0.00 0.00 90 1014.3
20260510012410 49 150 0.0 0.0 0.00 0.00 0.00 89 1014.3
20260510011410 49 150 0.0 0.0 0.00 0.00 0.00 88 1014.3
20260510010410 50 145 0.0 0.0 0.00 0.00 0.00 87 1014.4
20260510005410 50 150 0.0 0.0 0.00 0.00 0.00 86 1014.5
20260510004410 50 150 0.0 0.0 0.00 0.00 0.00 85 1014.6
20260510003410 50 150 0.0 0.0 0.00 0.00 0.00 85 1014.6
20260510002410 51 150 0.0 0.0 0.00 0.00 0.00 84 1014.6
20260510001410 51 150 0.0 0.0 0.00 0.00 0.00 84 1014.6
20260510000411 50 150 0.0 0.0 0.00 0.00 0.00 84 1014.8
20260509235410 51 150 0.0 0.0 0.00 0.00 0.00 82 1014.9
20260509234410 51 145 0.0 0.0 0.00 0.00 0.00 81 1014.9
20260509233410 51 150 0.0 0.0 0.00 0.00 0.00 81 1015.0
20260509232410 51 150 0.0 0.0 0.00 0.00 0.00 80 1014.9
20260509231410 52 145 0.0 0.0 0.00 0.00 0.00 79 1014.9
20260509230411 52 150 0.0 0.0 0.00 0.00 0.00 79 1014.9
20260509225410 52 150 0.0 0.0 0.00 0.00 0.00 79 1015.0
20260509224410 52 145 0.0 0.0 0.00 0.00 0.00 78 1014.9
20260509223410 53 150 0.0 0.0 0.00 0.00 0.00 77 1014.9
20260509222410 53 150 0.0 0.0 0.00 0.00 0.00 76 1015.0
20260509221410 53 150 0.0 0.0 0.00 0.00 0.00 76 1015.1
20260509220410 54 150 0.0 0.0 0.00 0.00 0.00 75 1015.0
20260509215410 54 150 0.0 0.0 0.00 0.00 0.00 74 1015.1
20260509214410 54 150 0.0 0.0 0.00 0.00 0.00 74 1014.9
20260509213412 55 145 0.0 0.0 0.00 0.00 0.00 73 1015.0
20260509212410 55 150 0.0 0.0 0.00 0.00 0.00 73 1014.9
20260509211410 55 145 0.0 0.0 0.00 0.00 0.00 73 1014.8
20260509210411 56 170 0.0 0.0 0.00 0.00 0.00 73 1014.8
20260509205410 56 170 0.0 0.0 0.00 0.00 0.00 73 1014.7
20260509204410 56 170 0.0 0.0 0.00 0.00 0.00 71 1014.8
20260509203410 57 185 0.0 0.0 0.00 0.00 0.00 71 1014.8
20260509202410 57 185 0.0 0.0 0.00 0.00 0.00 70 1014.9
20260509201410 58 185 0.0 0.0 0.00 0.00 0.00 69 1015.0
20260509200410 58 185 0.0 0.0 0.00 0.00 0.00 68 1014.8
20260509195410 59 185 0.0 0.0 0.00 0.00 0.00 68 1014.7
20260509194410 59 185 0.0 0.0 0.00 0.00 0.00 67 1014.5
20260509193410 60 185 0.0 0.0 0.00 0.00 0.00 66 1014.5
20260509192410 61 185 0.0 0.0 0.00 0.00 0.00 65 1014.6
20260509191410 62 185 0.0 0.0 0.00 0.00 0.00 64 1014.6
20260509190410 62 185 0.0 1.0 0.00 0.00 0.00 64 1014.5
20260509185410 63 70 0.0 0.0 0.00 0.00 0.00 63 1014.3
20260509184410 64 70 0.0 0.0 0.00 0.00 0.00 62 1014.3
20260509183410 65 70 0.0 0.0 0.00 0.00 0.00 59 1014.3
20260509182410 66 70 0.0 0.0 0.00 0.00 0.00 57 1014.3
20260509181410 67 70 0.0 0.0 0.00 0.00 0.00 55 1014.3
20260509180410 70 70 0.0 0.0 0.00 0.00 0.00 53 1014.2
20260509175410 72 70 0.0 0.0 0.00 0.00 0.00 50 1014.2
20260509174410 75 70 0.0 1.0 0.00 0.00 0.00 47 1014.1
20260509173410 75 70 0.0 1.0 0.00 0.00 0.00 48 1014.0
20260509172410 73 70 0.0 0.0 0.00 0.00 0.00 50 1014.0
20260509171410 72 70 0.0 0.0 0.00 0.00 0.00 48 1013.9
20260509170410 75 70 0.0 1.0 0.00 0.00 0.00 45 1014.0
20260509165410 75 70 0.0 0.0 0.00 0.00 0.00 48 1014.1
20260509164410 74 70 0.0 1.0 0.00 0.00 0.00 47 1014.3
20260509163410 71 70 0.0 0.0 0.00 0.00 0.00 52 1014.2
20260509162410 72 70 0.0 0.0 0.00 0.00 0.00 48 1014.3
20260509161410 75 70 0.0 2.0 0.00 0.00 0.00 45 1014.2
20260509160410 78 60 0.0 2.0 0.00 0.00 0.00 42 1014.3
20260509155413 77 60 0.0 0.0 0.00 0.00 0.00 47 1014.3
20260509154410 76 60 0.0 3.0 0.00 0.00 0.00 44 1014.3
20260509153410 80 95 0.0 2.0 0.00 0.00 0.00 42 1014.3
20260509152410 79 130 1.0 3.0 0.00 0.00 0.00 41 1014.5
20260509151410 81 30 0.0 6.0 0.00 0.00 0.00 40 1014.5
20260509150410 81 65 0.0 5.0 0.00 0.00 0.00 40 1014.6
20260509145410 82 70 2.0 6.0 0.00 0.00 0.00 41 1014.6
20260509144410 80 150 0.0 3.0 0.00 0.00 0.00 40 1014.6
20260509143410 80 75 1.0 5.0 0.00 0.00 0.00 43 1014.7
20260509142410 79 75 0.0 5.0 0.00 0.00 0.00 42 1014.8
20260509141411 78 60 1.0 4.0 0.00 0.00 0.00 44 1014.8
20260509140411 75 125 0.0 4.0 0.00 0.00 0.00 47 1015.0
20260509135410 74 25 0.0 6.0 0.00 0.00 0.00 47 1015.0
20260509134410 75 85 1.0 6.0 0.00 0.00 0.00 46 1015.1
20260509133410 79 50 4.0 5.0 0.00 0.00 0.00 44 1015.2
20260509132410 77 45 0.0 3.0 0.00 0.00 0.00 46 1015.3
20260509131410 74 90 0.0 6.0 0.00 0.00 0.00 49 1015.5
20260509130412 74 155 1.0 4.0 0.00 0.00 0.00 48 1015.6
20260509125410 73 70 0.0 5.0 0.00 0.00 0.00 49 1015.7
20260509124410 74 65 1.0 6.0 0.00 0.00 0.00 48 1015.8
20260509123410 76 90 1.0 5.0 0.00 0.00 0.00 47 1015.8
20260509122410 77 110 0.0 3.0 0.00 0.00 0.00 45 1016.0
20260509121410 74 145 0.0 5.0 0.00 0.00 0.00 48 1016.0
20260509120410 73 160 3.0 6.0 0.00 0.00 0.00 47 1016.2
20260509115410 76 260 0.0 5.0 0.00 0.00 0.00 44 1016.3
20260509114410 76 35 2.0 4.0 0.00 0.00 0.00 46 1016.4
20260509113410 74 80 1.0 6.0 0.00 0.00 0.00 49 1016.4
20260509112410 74 140 0.0 8.0 0.00 0.00 0.00 47 1016.5
20260509111410 75 85 7.0 7.0 0.00 0.00 0.00 48 1016.7
20260509110410 75 50 1.0 10.0 0.00 0.00 0.00 48 1016.8
20260509105410 75 80 0.0 8.0 0.00 0.00 0.00 49 1016.8
20260509104410 75 65 5.0 9.0 0.00 0.00 0.00 51 1016.8
20260509103410 74 65 3.0 8.0 0.00 0.00 0.00 50 1016.9
20260509102410 74 70 3.0 6.0 0.00 0.00 0.00 51 1017.0